| time (UTC) | temp C | wind direction | speed KPH | gust KPH | rain 1hr cm | rain 24hr cm | rain mn cm | humidity % | barometer mb |
| 20260505061736 | 0 | 313 | 20.9 | 29.0 | 0.00 | 0.00 | 0.00 | 70 | 1006.4 |
| 20260505061314 | 0 | 320 | 22.5 | 32.2 | 0.00 | 0.00 | 0.00 | 70 | 1006.3 |
| 20260505060313 | 0 | 315 | 25.7 | 37.0 | 0.00 | 0.00 | 0.00 | 71 | 1006.2 |
| 20260505060235 | 0 | 299 | 19.3 | 35.4 | 0.00 | 0.00 | 0.00 | 71 | 1006.2 |
| 20260505055313 | 0 | 309 | 19.3 | 29.0 | 0.00 | 0.00 | 0.00 | 70 | 1006.2 |
| 20260505054735 | 0 | 314 | 24.1 | 29.0 | 0.00 | 0.00 | 0.00 | 70 | 1006.2 |
| 20260505054313 | 0 | 299 | 19.3 | 24.1 | 0.00 | 0.00 | 0.00 | 70 | 1006.2 |
| 20260505053313 | 0 | 299 | 11.3 | 24.1 | 0.00 | 0.00 | 0.00 | 70 | 1006.1 |
| 20260505053235 | 0 | 293 | 14.5 | 22.5 | 0.00 | 0.00 | 0.00 | 69 | 1006.1 |
| 20260505052315 | 0 | 284 | 12.9 | 22.5 | 0.00 | 0.00 | 0.00 | 69 | 1006.0 |
| 20260505051734 | 0 | 265 | 9.7 | 14.5 | 0.00 | 0.00 | 0.00 | 68 | 1006.1 |
| 20260505051314 | 0 | 258 | 9.7 | 12.9 | 0.00 | 0.00 | 0.00 | 68 | 1006.1 |
| 20260505050314 | 0 | 251 | 14.5 | 16.1 | 0.00 | 0.00 | 0.00 | 68 | 1006.1 |
| 20260505050234 | 0 | 251 | 16.1 | 19.3 | 0.00 | 0.00 | 0.00 | 68 | 1006.1 |
| 20260505041736 | -1 | 276 | 3.2 | 4.8 | 0.00 | 0.13 | 0.00 | 69 | 1005.9 |
| 20260505041315 | -1 | 296 | 3.2 | 4.8 | 0.00 | 0.13 | 0.00 | 68 | 1005.9 |
| 20260505040314 | -1 | 290 | 3.2 | 4.8 | 0.00 | 0.13 | 0.00 | 69 | 1005.9 |
| 20260505040234 | -1 | 291 | 1.6 | 4.8 | 0.00 | 0.13 | 0.00 | 69 | 1005.9 |
| 20260505035314 | -1 | 303 | 4.8 | 4.8 | 0.00 | 0.13 | 0.00 | 70 | 1005.9 |
| 20260505034734 | -1 | 317 | 4.8 | 4.8 | 0.00 | 0.13 | 0.00 | 69 | 1005.9 |
| 20260505034313 | -1 | 321 | 4.8 | 9.7 | 0.00 | 0.13 | 0.00 | 70 | 1005.9 |
| 20260505033313 | -1 | 329 | 8.0 | 9.7 | 0.00 | 0.13 | 0.00 | 69 | 1005.9 |
| 20260505033235 | -1 | 325 | 4.8 | 9.7 | 0.00 | 0.13 | 0.00 | 69 | 1005.8 |
| 20260505032315 | -1 | 327 | 8.0 | 8.0 | 0.00 | 0.13 | 0.00 | 69 | 1005.8 |
| 20260505031735 | -1 | 333 | 4.8 | 4.8 | 0.00 | 0.13 | 0.00 | 68 | 1005.8 |
| 20260505031315 | -1 | 331 | 8.0 | 9.7 | 0.00 | 0.13 | 0.00 | 68 | 1005.8 |
| 20260505030313 | -1 | 352 | 8.0 | 9.7 | 0.00 | 0.13 | 0.00 | 67 | 1005.7 |
| 20260505030235 | -1 | 348 | 8.0 | 11.3 | 0.00 | 0.13 | 0.00 | 67 | 1005.7 |
| 20260505025313 | -1 | 0 | 11.3 | 14.5 | 0.00 | 0.13 | 0.00 | 66 | 1005.7 |
| 20260505024735 | 0 | 355 | 11.3 | 14.5 | 0.00 | 0.13 | 0.00 | 65 | 1005.6 |
| 20260505024313 | 0 | 5 | 12.9 | 20.9 | 0.00 | 0.13 | 0.00 | 64 | 1005.6 |
| 20260505023313 | 0 | 1 | 14.5 | 19.3 | 0.00 | 0.13 | 0.00 | 64 | 1005.5 |
| 20260505023235 | 0 | 1 | 14.5 | 19.3 | 0.00 | 0.13 | 0.00 | 64 | 1005.5 |
| 20260505022314 | 0 | 7 | 16.1 | 24.1 | 0.00 | 0.13 | 0.00 | 63 | 1005.4 |
| 20260505021736 | 0 | 9 | 20.9 | 24.1 | 0.00 | 0.13 | 0.00 | 63 | 1005.3 |
| 20260505021314 | 0 | 0 | 24.1 | 29.0 | 0.00 | 0.13 | 0.00 | 63 | 1005.2 |
| 20260505020313 | 1 | 355 | 16.1 | 24.1 | 0.00 | 0.13 | 0.00 | 61 | 1005.1 |
| 20260505020234 | 1 | 346 | 12.9 | 27.4 | 0.00 | 0.13 | 0.00 | 61 | 1005.1 |
| 20260505015314 | 1 | 334 | 20.9 | 24.1 | 0.00 | 0.13 | 0.00 | 59 | 1004.9 |
| 20260505014734 | 1 | 322 | 24.1 | 27.4 | 0.00 | 0.13 | 0.00 | 57 | 1004.8 |
| 20260505014314 | 1 | 326 | 24.1 | 27.4 | 0.00 | 0.13 | 0.00 | 57 | 1004.7 |
| 20260505013314 | 2 | 328 | 32.2 | 33.8 | 0.00 | 0.13 | 0.00 | 55 | 1004.6 |
| 20260505013234 | 2 | 328 | 32.2 | 40.2 | 0.00 | 0.13 | 0.00 | 55 | 1004.6 |
| 20260505012313 | 2 | 335 | 24.1 | 35.4 | 0.00 | 0.13 | 0.00 | 55 | 1004.5 |
| 20260505011735 | 2 | 324 | 25.7 | 40.2 | 0.00 | 0.13 | 0.00 | 54 | 1004.3 |
| 20260505011314 | 2 | 328 | 29.0 | 41.8 | 0.00 | 0.13 | 0.00 | 53 | 1004.4 |
| 20260505010314 | 3 | 316 | 32.2 | 38.6 | 0.00 | 0.13 | 0.00 | 52 | 1004.3 |
| 20260505010234 | 3 | 322 | 35.4 | 45.1 | 0.00 | 0.13 | 0.00 | 52 | 1004.3 |
| 20260505005313 | 3 | 321 | 35.4 | 46.7 | 0.00 | 0.13 | 0.00 | 54 | 1004.2 |
| 20260505004735 | 3 | 327 | 32.2 | 45.1 | 0.00 | 0.13 | 0.00 | 54 | 1004.1 |
| 20260505004313 | 3 | 320 | 22.5 | 41.8 | 0.00 | 0.13 | 0.00 | 54 | 1004.1 |
| 20260505003315 | 3 | 342 | 25.7 | 33.8 | 0.00 | 0.13 | 0.00 | 55 | 1004.1 |
| 20260505003234 | 3 | 332 | 32.2 | 41.8 | 0.00 | 0.13 | 0.00 | 55 | 1004.1 |
| 20260505002314 | 4 | 323 | 25.7 | 35.4 | 0.00 | 0.13 | 0.00 | 52 | 1004.0 |
| 20260505001734 | 4 | 338 | 29.0 | 37.0 | 0.00 | 0.13 | 0.00 | 51 | 1003.9 |
| 20260505001314 | 4 | 347 | 32.2 | 49.9 | 0.00 | 0.13 | 0.00 | 51 | 1003.9 |
| 20260505000314 | 5 | 322 | 32.2 | 49.9 | 0.00 | 0.13 | 0.00 | 51 | 1003.6 |
| 20260505000234 | 5 | 329 | 35.4 | 38.6 | 0.00 | 0.13 | 0.00 | 51 | 1003.6 |
| 20260504235314 | 5 | 351 | 35.4 | 49.9 | 0.00 | 0.13 | 0.00 | 52 | 1003.5 |
| 20260504234736 | 5 | 315 | 35.4 | 56.3 | 0.00 | 0.13 | 0.00 | 52 | 1003.5 |
| 20260504234313 | 5 | 341 | 24.1 | 29.0 | 0.00 | 0.13 | 0.00 | 53 | 1003.4 |
| 20260504233314 | 5 | 335 | 27.4 | 41.8 | 0.00 | 0.13 | 0.00 | 51 | 1003.4 |
| 20260504233234 | 5 | 336 | 29.0 | 41.8 | 0.00 | 0.13 | 0.00 | 51 | 1003.4 |
| 20260504232314 | 4 | 336 | 25.7 | 35.4 | 0.00 | 0.13 | 0.00 | 53 | 1003.4 |
| 20260504231735 | 5 | 339 | 22.5 | 29.0 | 0.00 | 0.13 | 0.00 | 53 | 1003.4 |
| 20260504231313 | 5 | 348 | 25.7 | 32.2 | 0.00 | 0.13 | 0.00 | 54 | 1003.3 |
| 20260504230315 | 5 | 334 | 33.8 | 61.2 | 0.00 | 0.13 | 0.00 | 54 | 1003.3 |
| 20260504230235 | 5 | 336 | 25.7 | 38.6 | 0.00 | 0.13 | 0.00 | 53 | 1003.2 |
| 20260504225314 | 5 | 333 | 37.0 | 41.8 | 0.00 | 0.13 | 0.00 | 51 | 1003.1 |
| 20260504224734 | 5 | 339 | 29.0 | 37.0 | 0.00 | 0.13 | 0.00 | 53 | 1003.1 |
| 20260504224314 | 5 | 338 | 32.2 | 35.4 | 0.00 | 0.13 | 0.00 | 53 | 1003.0 |
| 20260504223314 | 5 | 328 | 24.1 | 27.4 | 0.00 | 0.13 | 0.00 | 55 | 1003.0 |
| 20260504223234 | 5 | 325 | 25.7 | 48.3 | 0.00 | 0.13 | 0.00 | 56 | 1002.9 |
| 20260504222314 | 5 | 330 | 24.1 | 46.7 | 0.00 | 0.13 | 0.00 | 58 | 1002.9 |
| 20260504221735 | 5 | 313 | 33.8 | 49.9 | 0.00 | 0.13 | 0.00 | 57 | 1002.7 |
| 20260504221314 | 5 | 333 | 24.1 | 41.8 | 0.00 | 0.13 | 0.00 | 59 | 1002.6 |
| 20260504220313 | 6 | 324 | 25.7 | 41.8 | 0.00 | 0.13 | 0.00 | 58 | 1002.5 |
| 20260504220235 | 6 | 333 | 29.0 | 37.0 | 0.00 | 0.13 | 0.00 | 59 | 1002.4 |
| 20260504215313 | 5 | 343 | 27.4 | 45.1 | 0.00 | 0.13 | 0.00 | 60 | 1002.2 |
| 20260504214734 | 5 | 345 | 27.4 | 32.2 | 0.00 | 0.13 | 0.00 | 59 | 1002.2 |
| 20260504214313 | 5 | 345 | 27.4 | 40.2 | 0.00 | 0.13 | 0.00 | 59 | 1002.2 |
| 20260504213315 | 5 | 327 | 24.1 | 37.0 | 0.00 | 0.13 | 0.00 | 60 | 1002.1 |
| 20260504213235 | 5 | 321 | 25.7 | 40.2 | 0.00 | 0.13 | 0.00 | 59 | 1002.2 |
| 20260504212313 | 6 | 350 | 32.2 | 41.8 | 0.00 | 0.13 | 0.00 | 57 | 1002.1 |
| 20260504211735 | 6 | 347 | 29.0 | 38.6 | 0.00 | 0.13 | 0.00 | 57 | 1001.9 |
| 20260504211314 | 6 | 337 | 29.0 | 45.1 | 0.00 | 0.13 | 0.00 | 58 | 1001.9 |
| 20260504210313 | 6 | 336 | 22.5 | 38.6 | 0.00 | 0.13 | 0.00 | 59 | 1001.8 |
| 20260504210235 | 6 | 339 | 27.4 | 40.2 | 0.00 | 0.13 | 0.00 | 58 | 1001.8 |
| 20260504205313 | 6 | 343 | 32.2 | 35.4 | 0.00 | 0.13 | 0.00 | 56 | 1001.7 |
| 20260504204735 | 6 | 334 | 24.1 | 45.1 | 0.00 | 0.13 | 0.00 | 55 | 1001.6 |
| 20260504204315 | 6 | 327 | 27.4 | 37.0 | 0.00 | 0.13 | 0.00 | 54 | 1001.5 |
| 20260504203313 | 7 | 329 | 32.2 | 49.9 | 0.00 | 0.13 | 0.00 | 53 | 1001.3 |
| 20260504203235 | 7 | 327 | 27.4 | 53.1 | 0.00 | 0.13 | 0.00 | 53 | 1001.2 |
| 20260504202313 | 7 | 327 | 33.8 | 53.1 | 0.00 | 0.13 | 0.00 | 54 | 1001.1 |
| 20260504201735 | 7 | 327 | 27.4 | 49.9 | 0.00 | 0.13 | 0.00 | 51 | 1001.0 |
| 20260504201314 | 7 | 331 | 35.4 | 51.5 | 0.00 | 0.13 | 0.00 | 51 | 1001.0 |
| 20260504200313 | 7 | 318 | 38.6 | 56.3 | 0.00 | 0.13 | 0.00 | 51 | 1000.8 |
| 20260504200235 | 7 | 322 | 41.8 | 49.9 | 0.00 | 0.13 | 0.00 | 51 | 1000.8 |
| 20260504195315 | 7 | 319 | 33.8 | 48.3 | 0.00 | 0.13 | 0.00 | 51 | 1000.7 |
| 20260504194734 | 7 | 319 | 40.2 | 53.1 | 0.00 | 0.13 | 0.00 | 51 | 1000.6 |
| 20260504194314 | 7 | 325 | 35.4 | 41.8 | 0.00 | 0.13 | 0.00 | 52 | 1000.7 |
| 20260504193314 | 7 | 324 | 35.4 | 59.5 | 0.00 | 0.13 | 0.00 | 52 | 1000.4 |
| 20260504193234 | 7 | 338 | 37.0 | 51.5 | 0.00 | 0.13 | 0.00 | 51 | 1000.4 |
| 20260504192314 | 7 | 325 | 38.6 | 45.1 | 0.00 | 0.13 | 0.00 | 48 | 1000.3 |
| 20260504191735 | 7 | 307 | 40.2 | 45.1 | 0.00 | 0.13 | 0.00 | 51 | 1000.4 |
| 20260504191315 | 7 | 329 | 38.6 | 56.3 | 0.00 | 0.13 | 0.00 | 52 | 1000.2 |
| 20260504190315 | 7 | 340 | 33.8 | 46.7 | 0.00 | 0.13 | 0.00 | 53 | 1000.0 |
| 20260504190234 | 7 | 326 | 29.0 | 48.3 | 0.00 | 0.13 | 0.00 | 54 | 1000.0 |
| 20260504185314 | 6 | 308 | 40.2 | 51.5 | 0.00 | 0.13 | 0.00 | 54 | 999.9 |
| 20260504184734 | 6 | 311 | 37.0 | 48.3 | 0.00 | 0.13 | 0.00 | 55 | 999.9 |
| 20260504184314 | 6 | 308 | 41.8 | 56.3 | 0.00 | 0.13 | 0.00 | 55 | 999.8 |
| 20260504183314 | 6 | 328 | 33.8 | 45.1 | 0.00 | 0.13 | 0.00 | 55 | 999.6 |
| 20260504183234 | 6 | 329 | 35.4 | 48.3 | 0.00 | 0.13 | 0.00 | 55 | 999.6 |
| 20260504182314 | 6 | 323 | 35.4 | 46.7 | 0.00 | 0.13 | 0.00 | 56 | 999.6 |
| 20260504181736 | 6 | 316 | 40.2 | 57.9 | 0.00 | 0.13 | 0.00 | 57 | 999.5 |
| 20260504181314 | 5 | 319 | 38.6 | 51.5 | 0.00 | 0.13 | 0.00 | 57 | 999.4 |
| 20260504180314 | 5 | 324 | 33.8 | 48.3 | 0.00 | 0.13 | 0.00 | 60 | 999.3 |
| 20260504180234 | 5 | 312 | 38.6 | 45.1 | 0.00 | 0.13 | 0.00 | 60 | 999.3 |
| 20260504175314 | 5 | 321 | 33.8 | 46.7 | 0.00 | 0.13 | 0.00 | 60 | 999.3 |
| 20260504174735 | 5 | 315 | 29.0 | 48.3 | 0.00 | 0.13 | 0.00 | 63 | 999.3 |
| 20260504174314 | 5 | 309 | 33.8 | 46.7 | 0.00 | 0.13 | 0.00 | 63 | 999.3 |
| 20260504173314 | 5 | 315 | 35.4 | 38.6 | 0.00 | 0.13 | 0.00 | 61 | 999.1 |
| 20260504173234 | 5 | 326 | 32.2 | 53.1 | 0.00 | 0.13 | 0.00 | 61 | 999.1 |
| 20260504172315 | 6 | 322 | 29.0 | 38.6 | 0.00 | 0.13 | 0.00 | 59 | 998.9 |
| 20260504171734 | 6 | 332 | 33.8 | 38.6 | 0.00 | 0.13 | 0.00 | 58 | 998.8 |
| 20260504171314 | 6 | 334 | 33.8 | 49.9 | 0.00 | 0.13 | 0.00 | 56 | 998.7 |
| 20260504170314 | 6 | 332 | 46.7 | 59.5 | 0.00 | 0.13 | 0.00 | 56 | 998.5 |
| 20260504170234 | 6 | 308 | 45.1 | 62.8 | 0.00 | 0.13 | 0.00 | 57 | 998.5 |
| 20260504160314 | 5 | 317 | 37.0 | 51.5 | 0.00 | 0.13 | 0.00 | 61 | 998.1 |
| 20260504160234 | 5 | 322 | 33.8 | 56.3 | 0.00 | 0.13 | 0.00 | 59 | 998.1 |
| 20260504150313 | 5 | 305 | 41.8 | 57.9 | 0.00 | 0.13 | 0.00 | 64 | 997.3 |
| 20260504150235 | 5 | 315 | 40.2 | 53.1 | 0.00 | 0.13 | 0.00 | 65 | 997.3 |
| 20260504141313 | 3 | 307 | 32.2 | 51.5 | 0.00 | 0.13 | 0.00 | 74 | 997.0 |
| 20260504140314 | 3 | 306 | 35.4 | 48.3 | 0.00 | 0.13 | 0.00 | 77 | 997.0 |
| 20260504140235 | 3 | 312 | 41.8 | 57.9 | 0.00 | 0.13 | 0.00 | 77 | 997.0 |
| 20260504130314 | 3 | 303 | 33.8 | 41.8 | 0.00 | 0.13 | 0.13 | 81 | 996.4 |
| 20260504130234 | 3 | 311 | 37.0 | 49.9 | 0.00 | 0.13 | 0.13 | 81 | 996.4 |
| 20260504120313 | 2 | 307 | 32.2 | 41.8 | 0.00 | 0.13 | 0.13 | 85 | 995.5 |
| 20260504120235 | 2 | 311 | 35.4 | 49.9 | 0.00 | 0.13 | 0.13 | 85 | 995.4 |
| 20260504110314 | 2 | 318 | 45.1 | 61.2 | 0.00 | 0.13 | 0.13 | 87 | 994.1 |
| 20260504110236 | 2 | 309 | 38.6 | 49.9 | 0.00 | 0.13 | 0.13 | 87 | 994.2 |
| 20260504100313 | 3 | 316 | 32.2 | 38.6 | 0.00 | 0.13 | 0.13 | 86 | 993.2 |
| 20260504100235 | 3 | 309 | 35.4 | 45.1 | 0.00 | 0.13 | 0.13 | 86 | 993.2 |
| 20260504081735 | 4 | 314 | 32.2 | 38.6 | 0.00 | 0.13 | 0.13 | 86 | 991.3 |
| 20260504081313 | 4 | 311 | 29.0 | 40.2 | 0.00 | 0.13 | 0.13 | 86 | 991.2 |
| 20260504080313 | 5 | 323 | 29.0 | 35.4 | 0.00 | 0.13 | 0.13 | 87 | 990.9 |
| 20260504080235 | 5 | 307 | 27.4 | 38.6 | 0.00 | 0.13 | 0.13 | 87 | 990.8 |
| 20260504070315 | 5 | 324 | 29.0 | 38.6 | 0.00 | 0.13 | 0.13 | 85 | 990.4 |
| 20260504070235 | 5 | 323 | 25.7 | 40.2 | 0.00 | 0.13 | 0.13 | 85 | 990.4 |